#timestamp,LO_Frequency,Hit,StdDev 
1571058015.0,286046996.5,N
1571058015.9,286046996.5,N
1571058035.8,286046996.4,N
1571058055.6,286046997.5,N
1571058075.4,286046997.0,N
1571058095.3,286046999.6,N
1571058115.1,286046999.0,N
1571058135.9,286047001.2,N
1571058155.7,286047000.7,N
1571058175.5,286046998.0,N
1571058195.4,286046993.3,N
1571058215.2,286046997.7,N
1571058235.0,286047000.6,N
1571058235.9,286047000.6,N
1571058255.8,286046999.4,N
1571058275.6,286046996.7,N
1571058295.5,286046996.9,N
1571058315.3,286046997.7,N
1571058335.1,286046994.2,N
1571058355.9,286046992.9,N
1571058375.7,286046994.1,N
1571058395.5,286046994.8,N
1571058415.4,286046993.1,N
1571058435.2,286046988.6,Y
1571058455.1,286046990.3,P
1571058456.0,286046990.3,N
1571058475.8,286046994.7,N
1571058495.6,286046995.4,N
1571058515.5,286046997.5,N
1571058535.3,286047011.9,Y
1571058555.2,286047000.2,P
1571058575.9,286047004.2,N
1571058595.7,286047003.7,N
1571058615.6,286047006.1,N
1571058635.4,286047005.6,N
1571058655.2,286047005.6,N
1571058675.1,286047004.3,N
1571058676.0,286047004.3,N
1571058695.8,286047002.7,N
1571058715.7,286047004.4,N
1571058735.5,286047004.0,N
1571058755.3,286047002.0,N
1571058775.2,286047002.4,N
1571058795.0,286046999.0,N
1571058795.9,286046999.0,N
1571058815.7,286046997.9,N
1571058835.6,286046997.0,N
1571058855.4,286046996.9,N
1571058875.3,286046996.4,N
1571058895.1,286046996.7,N
1571058915.8,286047000.9,N
1571058935.7,286047002.2,N
1571058955.5,286047000.8,N
1571058975.4,286047001.1,N
1571058995.2,286046996.7,N
1571059015.0,286046995.2,N
1571059015.9,286046995.2,N
1571059035.8,286046993.5,N
1571059055.6,286046995.2,N
1571059075.4,286047002.8,N
1571059095.3,286047005.8,N
1571059115.1,286047005.8,N
1571059135.9,286047002.8,N
1571059155.7,286046998.8,N
1571059175.5,286046997.5,N
1571059195.4,286046995.2,N
1571059215.2,286046993.4,N
1571059235.1,286046998.0,N
1571059236.0,286046998.0,N
1571059255.8,286046997.7,N
1571059275.6,286047000.7,N
1571059295.5,286046999.6,N
1571059315.3,286047000.7,N
1571059335.1,286047000.1,N
1571059355.9,286047001.9,N
1571059375.7,286047005.5,N
1571059395.6,286047004.5,N
1571059415.4,286047004.7,N
1571059435.2,286047005.3,N
1571059455.1,286047003.7,N
1571059456.0,286047003.7,N
1571059475.8,286047005.9,N
1571059495.6,286047005.3,N
1571059515.5,286047007.6,N
1571059535.3,286047007.2,N
1571059555.2,286047007.2,N
1571059575.9,286047002.2,N
1571059595.7,286046997.0,N
1571059615.6,286046993.7,N
1571059635.4,286046992.4,N
1571059655.2,286046987.7,N
1571059675.1,286046986.0,N
1571059676.0,286046986.0,N
1571059695.8,286046985.1,N
1571059715.7,286046983.3,N
1571059735.5,286046983.1,N
1571059755.3,286046980.7,N
1571059775.2,286046980.7,N
1571059795.0,286046981.2,N
1571059795.9,286046981.2,N
1571059815.8,286046982.8,N
1571059835.6,286046986.1,N
1571059855.4,286046990.0,N
1571059875.3,286046987.2,N
1571059895.1,286046989.5,N
1571059915.8,286046991.4,N
1571059935.7,286046991.1,N
1571059955.5,286046991.7,N
1571059975.4,286046995.7,N
1571059995.2,286046997.2,N
1571060015.0,286046997.5,N
1571060015.9,286046997.5,N
1571060035.8,286047000.8,N
1571060055.6,286046999.5,N
1571060075.5,286046996.0,N
1571060095.3,286046995.5,N
1571060115.1,286046992.2,N
1571060135.9,286046990.7,N
1571060155.7,286046990.1,N
1571060175.5,286046988.5,N
1571060195.4,286046988.2,N
1571060215.2,286046984.7,N
1571060235.1,286046984.4,N
1571060236.0,286046984.4,N
1571060255.8,286046982.8,N
1571060275.6,286046986.6,N
1571060295.5,286046988.2,N
1571060315.3,286046986.4,N
1571060335.1,286046986.0,N
1571060355.9,286046987.4,N
1571060375.7,286046991.4,N
1571060395.6,286046990.8,N
1571060415.4,286046990.5,N
1571060435.2,286046991.4,N
1571060455.1,286046991.5,N
1571060456.0,286046991.5,N
1571060475.8,286046987.1,N
1571060495.7,286046985.3,Y
1571060515.5,286046995.7,P
1571060535.3,286046995.2,N
1571060555.2,286046994.0,N
1571060575.0,286046995.2,N
1571060575.9,286046995.2,N
1571060595.7,286046998.0,N
1571060615.6,286046997.5,N
1571060635.4,286046996.4,N
1571060655.3,286046993.9,Y
1571060675.1,286046997.0,P
1571060695.8,286046997.1,P
1571060715.7,286046999.5,N
1571060735.5,286046997.7,N
1571060755.4,286046997.4,N
1571060775.2,286046995.1,Y
1571060795.0,286046997.2,P
1571060795.9,286046997.2,P
1571060815.8,286046997.9,P
1571060835.6,286046995.7,Y
1571060855.5,286046998.7,P
1571060875.3,286046999.5,N
1571060895.1,286046998.2,N
1571060915.9,286047001.2,N
1571060935.7,286046998.2,N
1571060955.6,286047000.7,N
1571060975.4,286047002.7,N
1571060995.2,286047000.5,N
1571061015.1,286046998.2,N
1571061016.0,286046998.2,N
1571061035.8,286047001.1,N
1571061055.6,286046998.4,N
1571061075.5,286046999.4,N
1571061095.3,286046998.5,N
1571061115.2,286046998.2,N
1571061135.9,286047000.7,N
1571061155.7,286046997.3,N
1571061175.6,286046997.6,N
1571061195.4,286046997.9,N
1571061215.2,286046997.2,N
1571061235.1,286046997.1,N
1571061236.0,286046997.1,N
1571061255.8,286046996.8,N
1571061275.7,286046996.9,N
1571061295.5,286046999.2,N
1571061315.3,286046999.0,N
1571061335.2,286046995.1,Y
1571061355.0,286046997.5,P
1571061355.9,286046997.5,P
1571061375.8,286046997.6,P
1571061395.6,286046994.9,Y
1571061415.4,286046998.7,P
1571061435.3,286046999.1,N
1571061455.1,286046998.7,N
1571061475.9,286046998.5,Y
1571061495.7,286047001.0,P
1571061515.5,286047000.1,N
1571061535.4,286047001.1,N
1571061555.2,286046999.3,N
1571061575.0,286046999.3,N
1571061575.9,286046999.3,N
1571061595.8,286046998.9,N
